THORAD DELTA 1 DEB, 42606

Orbit data source: Space-Track

THORAD DELTA 1 DEB, 42606 is space debris in SSO originally from a launch on Fri, 15 Nov 1974 UTC launched from the Air Force Western Test Range (AFWTR). Debris objects in space refer to the collection of defunct objects orbiting the Earth. Examples of debris include non-operational satellites, rocket bodies, and fragments generated from explosions, collisions, or faulty payload assembly.

Loading next visibility...
Identifier
42606, 1974-089FX
Orbit
SSO
Country
Flag of USUS
Related business
Manufacturer
Unknown
Mission
Spacecraft
Bus & Motor
Unknown
Mass
Unknown
Launch date (UTC)
1974-11-15 (51 years ago)
Launch vehicle
Unknown
Launch site
Air Force Western Test Range (AFWTR)
Object type
Payload
Rocket body
Debris
Shape & HBR
Unknown shape, 0.1 m
Radar Cross Section
Small (<0.1 m²)

Expand to show TLE details & history
Last TLE update: 2 weeks ago

TLE from 2 weeks ago
0 THORAD DELTA 1 DEB
1 42606U 74089FX  25273.50860170  .00000398  00000-0  20377-2 0  9993
2 42606 102.1381 174.3922 0183496  89.5736  81.9175 12.72360659539428
Epoch: 2025-09-30T12:12Z
TLE epoch observation values (Epoch: 2025-09-30T12:12:23.186Z)
Latitude
6.20643°
Longitude
163.1322°
Altitude
1,356.907 km
Speed
7.188 km/s
True Right ascension
23h 42m 54s
True Declination
6° 10' 21"
Sunlit
Object was in full shadow at epoch
Visualization orbit readout
Latitude
Unknown
Longitude
Unknown
Altitude
Unknown
Speed
Unknown
Apparent Right ascension
Unknown
Apparent Declination
Unknown
Sunlit
N/A
Visualization observer readout
Local Sidereal Time
02:57:59
Azimuth
Unknown
Elevation
Unknown
Doppler factor
Unknown
Orbital elements
Apogee altitude
1,512.051 km
Perigee altitude
1,227.705 km
Semi-major axis
7,748.015 km
Eccentricity
0.01835
Inclination
102.1381°
RAAN
174.3922°
Arg. of periapsis
89.5736°
True anomaly
84.00559°
Mean anomaly
81.9175°
Eccentric anomaly
82.96093°
Mean motion
3.18242 °/min
Orbital period
113.12 mins
BSTAR
0.0020377
Loading maneuver chart data...
Computing Atmospheric mass density...

Documentation

Showing up to 5 results
|